Alpine, TX

4:19 PM CDT on September 19, 2017 (GMT -0500)
Alpine

Weather History for KE38 - January, 2014

Change the Weather History Date:

Saturday, January 11, 2014

  Actual Average (KMRF) Record (KMRF)
Temperature  
Mean Temperature 56 °F -  
Max Temperature 70 °F 56 °F 77 °F (2017)
Min Temperature 42 °F 25 °F 10 °F (2009)
Degree Days  
Heating Degree Days 9    
Growing Degree Days 6 (Base 50)    
Moisture  
Dew Point 18 °F    
Average Humidity 24    
Maximum Humidity 38    
Minimum Humidity 13    
Precipitation  
Precipitation 0.00 in - - ()
Sea Level Pressure  
Sea Level Pressure 30.21 in    
Wind  
Wind Speed 11 mph (WSW)    
Max Wind Speed 18 mph    
Max Gust Speed 25 mph    
Visibility 10 miles    
Events      
Averages and records for this station are not official NWS values.
T = Trace of Precipitation, MM = Missing Value Source: NWS Daily Summary

Daily Weather History Graph

Daily Weather History Graph

Search for Another Location

Airport or City:

Trip Planner

Search our weather history database for the weather conditions in past years. The results will help you decide how hot, cold, wet, or windy it might be!

Date:

Astronomy

Jan. 11, 2014 Rise Set
Actual Time 7:52 AM CST 6:13 PM CST
Civil Twilight 7:26 AM CST 6:39 PM CST
Nautical Twilight 6:56 AM CST 7:08 PM CST
Astronomical Twilight 6:27 AM CST 7:37 PM CST
Moon 2:56 PM CST (1/11) 4:02 AM CST (1/11)
Length of Visible Light 11h 12m
Length of Day
10h 20m
Waxing Gibbous, 83% of the Moon is Illuminated
Jan 11
Waxing Gibbous
Jan 15
Full
Jan 23
Last Quarter
Jan 30
New
Feb 6
First Quarter

Hourly Weather History & Observations

Time (CST) Temp. Windchill Dew Point Humidity Pressure Visibility Wind Dir Wind Speed Gust Speed Precip Events Conditions
12:15 AM 55.8 °F - 16.7 °F 22% 30.11 in 10.0 mi West 18.4 mph 24.2 mph N/A   Clear
12:35 AM 55.6 °F - 16.5 °F 22% 30.13 in 10.0 mi WSW 6.9 mph 17.3 mph N/A   Clear
12:55 AM 54.9 °F - 16.5 °F 22% 30.13 in 10.0 mi WSW 12.7 mph - N/A   Clear
1:15 AM 54.7 °F - 17.6 °F 23% 30.15 in 10.0 mi WSW 13.8 mph 19.6 mph N/A   Clear
1:35 AM 52.7 °F - 18.1 °F 26% 30.14 in 10.0 mi WSW 15.0 mph 18.4 mph N/A   Clear
1:55 AM 51.6 °F - 17.6 °F 26% 30.14 in 10.0 mi WSW 12.7 mph - N/A   Clear
2:15 AM 52.7 °F - 17.1 °F 25% 30.15 in 10.0 mi WSW 9.2 mph - N/A   Clear
2:35 AM 52.0 °F - 18.0 °F 26% 30.15 in 10.0 mi SW 10.4 mph - N/A   Clear
2:55 AM 52.2 °F - 18.1 °F 26% 30.15 in 10.0 mi WSW 11.5 mph - N/A   Clear
3:15 AM 51.4 °F - 17.6 °F 26% 30.16 in 10.0 mi WSW 9.2 mph - N/A   Clear
3:35 AM 51.8 °F - 17.6 °F 26% 30.16 in 10.0 mi WSW 10.4 mph 17.3 mph N/A   Clear
3:55 AM 51.8 °F - 17.2 °F 26% 30.16 in 10.0 mi WSW 10.4 mph - N/A   Clear
4:15 AM 50.2 °F - 17.2 °F 27% 30.17 in 10.0 mi West 8.1 mph - N/A   Clear
4:35 AM 50.5 °F - 17.4 °F 27% 30.18 in 10.0 mi West 10.4 mph - N/A   Clear
4:55 AM 47.5 °F - 18.5 °F 32% 30.18 in 10.0 mi West 11.5 mph - N/A   Clear
5:15 AM 48.4 °F - 18.3 °F 30% 30.19 in 10.0 mi West 10.4 mph - N/A   Clear
5:35 AM 45.3 °F 40.1 °F 19.0 °F 35% 30.20 in 10.0 mi West 10.4 mph - N/A   Clear
5:55 AM 45.7 °F 39.1 °F 19.0 °F 35% 30.20 in 10.0 mi West 15.0 mph - N/A   Clear
6:15 AM 45.5 °F 38.6 °F 18.9 °F 35% 30.21 in 10.0 mi West 16.1 mph - N/A   Clear
6:35 AM 45.5 °F 39.2 °F 18.7 °F 34% 30.22 in 10.0 mi West 13.8 mph - N/A   Clear
6:55 AM 45.0 °F 38.9 °F 18.3 °F 35% 30.23 in 10.0 mi West 12.7 mph - N/A   Clear
7:15 AM 42.6 °F 39.0 °F 18.3 °F 38% 30.24 in 10.0 mi WSW 5.8 mph - N/A   Clear
7:35 AM 43.5 °F 38.3 °F 18.3 °F 36% 30.26 in 10.0 mi WSW 9.2 mph - N/A   Clear
7:55 AM 44.8 °F 39.4 °F 18.3 °F 35% 30.26 in 10.0 mi WSW 10.4 mph - N/A   Clear
8:15 AM 44.2 °F 38.8 °F 18.1 °F 35% 30.27 in 10.0 mi SW 10.4 mph - N/A   Clear
8:35 AM 45.3 °F 40.6 °F 19.0 °F 35% 30.28 in 10.0 mi SW 9.2 mph - N/A   Clear
8:55 AM 50.0 °F - 18.9 °F 29% 30.29 in 10.0 mi WSW 6.9 mph - N/A   Clear
9:15 AM 52.9 °F - 18.7 °F 26% 30.29 in 10.0 mi SW 6.9 mph - N/A   Clear
9:35 AM 55.2 °F - 18.1 °F 23% 30.29 in 10.0 mi WSW 11.5 mph - N/A   Clear
9:55 AM 57.2 °F - 18.5 °F 22% 30.30 in 10.0 mi SW 10.4 mph - N/A   Clear
10:15 AM 59.5 °F - 18.3 °F 20% 30.30 in 10.0 mi WSW 10.4 mph - N/A   Clear
10:35 AM 60.8 °F - 17.4 °F 19% 30.30 in 10.0 mi WSW 9.2 mph - N/A   Clear
10:55 AM 62.6 °F - 17.1 °F 17% 30.30 in 10.0 mi SW 10.4 mph - N/A   Clear
11:15 AM 64.4 °F - 17.8 °F 17% 30.30 in 10.0 mi SW 11.5 mph - N/A   Clear
11:35 AM 64.0 °F - 16.2 °F 16% 30.29 in 10.0 mi SW 6.9 mph - N/A   Clear
11:55 AM 65.5 °F - 16.3 °F 15% 30.28 in 10.0 mi SW 5.8 mph - N/A   Clear
12:15 PM 66.6 °F - 16.5 °F 15% 30.27 in 10.0 mi SW 9.2 mph - N/A   Clear
12:35 PM 66.9 °F - 17.4 °F 15% 30.26 in 10.0 mi SW 11.5 mph - N/A   Clear
12:55 PM 67.5 °F - 16.7 °F 14% 30.25 in 10.0 mi SW 11.5 mph - N/A   Clear
1:15 PM 68.4 °F - 15.4 °F 13% 30.24 in 10.0 mi SW 13.8 mph 18.4 mph N/A   Clear
1:35 PM 68.0 °F - 15.8 °F 13% 30.23 in 10.0 mi SW 11.5 mph 18.4 mph N/A   Clear
1:55 PM 68.7 °F - 16.5 °F 14% 30.22 in 10.0 mi WSW 13.8 mph 25.3 mph N/A   Clear
2:15 PM 68.5 °F - 18.3 °F 15% 30.21 in 10.0 mi SW 11.5 mph - N/A   Clear
2:35 PM 68.9 °F - 18.3 °F 15% 30.20 in 10.0 mi SW 11.5 mph 17.3 mph N/A   Clear
2:55 PM 70.3 °F - 19.2 °F 14% 30.19 in 10.0 mi SW 13.8 mph 18.4 mph N/A   Clear
3:15 PM 69.3 °F - 18.9 °F 15% 30.19 in 10.0 mi SW 11.5 mph 19.6 mph N/A   Clear
3:35 PM 69.6 °F - 18.3 °F 14% 30.19 in 10.0 mi SW 10.4 mph - N/A   Clear
3:55 PM 70.0 °F - 18.3 °F 14% 30.18 in 10.0 mi SW 12.7 mph - N/A   Clear
4:15 PM 69.3 °F - 18.1 °F 14% 30.17 in 10.0 mi SW 6.9 mph - N/A   Clear
4:35 PM 69.3 °F - 18.1 °F 14% 30.17 in 10.0 mi SW 4.6 mph 9.2 mph N/A   Clear
4:55 PM 69.3 °F - 17.1 °F 14% 30.17 in 10.0 mi WSW 8.1 mph - N/A   Clear
5:15 PM 68.2 °F - 16.3 °F 14% 30.17 in 10.0 mi WSW 9.2 mph - N/A   Clear
5:35 PM 66.6 °F - 16.3 °F 15% 30.17 in 10.0 mi West 6.9 mph - N/A   Clear
5:55 PM 62.8 °F - 16.5 °F 17% 30.17 in 10.0 mi West 8.1 mph - N/A   Clear
6:15 PM 55.4 °F - 16.3 °F 22% 30.18 in 10.0 mi WSW 8.1 mph - N/A   Clear
6:35 PM 52.0 °F - 16.5 °F 25% 30.19 in 10.0 mi SW 8.1 mph - N/A   Clear
6:55 PM 52.9 °F - 17.2 °F 25% 30.19 in 10.0 mi SW 10.4 mph - N/A   Clear
7:15 PM 54.5 °F - 17.6 °F 23% 30.19 in 10.0 mi SW 10.4 mph - N/A   Clear
7:35 PM 54.3 °F - 19.0 °F 25% 30.19 in 10.0 mi SW 10.4 mph - N/A   Clear
7:55 PM 50.2 °F - 19.0 °F 29% 30.20 in 10.0 mi SSW 9.2 mph - N/A   Clear
8:15 PM 50.9 °F - 18.9 °F 28% 30.20 in 10.0 mi South 6.9 mph - N/A   Clear
8:35 PM 47.7 °F - 18.7 °F 32% 30.20 in 10.0 mi SW 9.2 mph - N/A   Clear
8:55 PM 53.6 °F - 19.0 °F 26% 30.20 in 10.0 mi SSW 10.4 mph - N/A   Clear
9:15 PM 52.2 °F - 18.7 °F 27% 30.20 in 10.0 mi SW 10.4 mph - N/A   Clear
9:35 PM 47.8 °F - 18.9 °F 32% 30.20 in 10.0 mi SW 10.4 mph - N/A   Clear
9:55 PM 47.3 °F - 18.5 °F 32% 30.20 in 10.0 mi WSW 10.4 mph - N/A   Clear
10:15 PM 46.0 °F 39.9 °F 18.5 °F 33% 30.20 in 10.0 mi SW 13.8 mph - N/A   Clear
10:35 PM 46.9 °F - 18.7 °F 33% 30.20 in 10.0 mi WSW 10.4 mph - N/A   Clear
10:55 PM 46.9 °F - 18.9 °F 33% 30.19 in 10.0 mi WSW 9.2 mph - N/A   Clear
11:15 PM 48.9 °F - 18.7 °F 30% 30.19 in 10.0 mi WSW 10.4 mph - N/A   Clear
11:35 PM 46.9 °F - 18.5 °F 32% 30.19 in 10.0 mi WSW 11.5 mph - N/A   Clear
11:55 PM 49.1 °F - 18.7 °F 30% 30.18 in 10.0 mi WSW 8.1 mph - N/A   Clear